Hoquiam, WA
on Tuesday, December 11, 2012

Tuesday
Previous Day Next Day
Daily Summary
 ActualAverageRecord
Temperature
Mean Temperature °F 42°F  
Max Temperature 46°F 46°F 57°F (1976)
Min Temperature 43°F 37°F 18°F (2009)
Degree Days
Heating Degree Days 20 23  
Month to date heating degree days 251  
Cooling Degree Days 0 0  
Month to date cooling degree days 0  
Year to date cooling degree days 23  
Moisture
Dew Point 43°F   
Average Humidity 92    
Maximum Humidity 100    
Minimum Humidity 85    
Precipitation
Precipitation 0.50 in 0.31 in 2.54 in (1955)
Month to date precipitation 3.63  
Year to date precipitation 61.22  
Wind
Wind Speed 9 mph   
Max Wind Speed 23 mph   
Max Gust Speed 28 mph   
Visibility 7 miles   
Events Rain   

Key: T is trace of precipitation, MM is missing value
Source: NWS Daily Summary
Time(PST)TemperatureDew PointHumidity Pressure Visibility Wind DirectionWind SpeedGust SpeedPrecipitationEvents Conditions
12:53 AM 43.0°F 41.0°F 93% 30.07 in 10.0 miles ESE 3.5 mph - N/A   Overcast
1:53 AM 44.1°F 42.1°F 93% 30.03 in 10.0 miles SE 8.1 mph - N/A   Overcast
2:53 AM 44.1°F 42.1°F 93% 29.99 in 10.0 miles SE 6.9 mph - N/A   Overcast
3:53 AM 44.1°F 42.1°F 93% 29.94 in 7.0 miles SSE 8.1 mph - 0.01 in Rain Light Rain
4:24 AM 44.6°F 42.8°F 93% 29.91 in 10.0 miles SSE 8.1 mph - 0.00 in   Overcast
4:53 AM 45.0°F 43.0°F 93% 29.91 in 10.0 miles South 5.8 mph - 0.00 in   Overcast
5:19 AM 44.6°F 42.8°F 93% 29.87 in 10.0 miles SSE 6.9 mph - N/A   Overcast
5:41 AM 44.6°F 42.8°F 93% 29.87 in 10.0 miles South 5.8 mph - N/A   Overcast
5:53 AM 45.0°F 43.0°F 93% 29.87 in 9.0 miles South 10.4 mph - N/A   Overcast
6:53 AM 46.0°F 43.0°F 89% 29.81 in 10.0 miles SSE 11.5 mph - N/A   Overcast
7:53 AM 46.0°F 43.0°F 89% 29.78 in 8.0 miles SSE 9.2 mph - 0.01 in Rain Light Rain
8:17 AM 46.4°F 42.8°F 87% 29.76 in 6.0 miles SSE 11.5 mph - 0.01 in Rain Light Rain
8:42 AM 46.4°F 42.8°F 87% 29.75 in 7.0 miles SSE 12.7 mph - 0.02 in Rain Light Rain
8:53 AM 46.0°F 44.1°F 93% 29.75 in 5.0 miles SSE 9.2 mph - 0.02 in Rain Light Rain
9:53 AM 46.9°F 44.1°F 90% 29.72 in 3.0 miles SSE 17.3 mph - 0.01 in   Overcast
10:53 AM 46.9°F 45.0°F 93% 29.68 in 2.5 miles SSE 17.3 mph - 0.01 in Rain Light Rain
11:28 AM 46.4°F 44.6°F 93% 29.64 in 3.0 miles SSE 19.6 mph 27.6 mph 0.01 in Rain Light Rain
11:38 AM 46.4°F 44.6°F 93% 29.63 in 2.5 miles SSE 17.3 mph - 0.03 in Rain Light Rain
11:53 AM 46.9°F 45.0°F 93% 29.64 in 2.5 miles SSE 13.8 mph - 0.07 in Rain Rain
11:59 AM 46.4°F 44.6°F 93% 29.62 in 3.0 miles SSE 15.0 mph - 0.01 in Rain Light Rain
12:25 PM 46.4°F 44.6°F 93% 29.60 in 6.0 miles SSE 16.1 mph - 0.02 in Rain Light Rain
12:35 PM 46.4°F 44.6°F 93% 29.59 in 5.0 miles SSE 20.7 mph 25.3 mph 0.04 in Rain Light Rain
12:50 PM 46.4°F 44.6°F 93% 29.58 in 3.0 miles SSE 19.6 mph - 0.08 in Rain Light Rain
12:53 PM 46.9°F 45.0°F 93% 29.59 in 4.0 miles SSE 23.0 mph - 0.09 in Rain Light Rain
1:16 PM 46.4°F 44.6°F 93% 29.56 in 3.0 miles SSE 19.6 mph - 0.04 in Rain Light Rain
1:21 PM 46.4°F 44.6°F 93% 29.57 in 2.5 miles South 16.1 mph - 0.05 in Rain Light Rain
1:31 PM 46.4°F 46.4°F 100% 29.57 in 1.2 miles NNW 11.5 mph 17.3 mph 0.14 in Rain Rain
1:37 PM 46.4°F 44.6°F 93% 29.57 in 2.5 miles West 13.8 mph 20.7 mph 0.15 in Rain Light Rain
1:42 PM 46.4°F 44.6°F 93% 29.56 in 4.0 miles West 11.5 mph 20.7 mph 0.15 in Rain Light Rain
1:53 PM 46.9°F 45.0°F 93% 29.58 in 3.0 miles West 9.2 mph 18.4 mph 0.18 in Rain Light Rain
2:53 PM 46.9°F 45.0°F 93% 29.56 in 9.0 miles West 6.9 mph - 0.02 in   Mostly Cloudy
3:01 PM 46.4°F 44.6°F 93% 29.55 in 10.0 miles WSW 3.5 mph - N/A   Overcast
3:41 PM 46.4°F 44.6°F 93% 29.56 in 10.0 miles WSW 4.6 mph - 0.01 in   Overcast
3:53 PM 46.9°F 45.0°F 93% 29.57 in 8.0 miles SW 4.6 mph - 0.01 in Rain Light Rain
4:30 PM 46.4°F 42.8°F 87% 29.56 in 9.0 miles West 8.1 mph - 0.01 in Rain Light Rain
4:40 PM 46.4°F 42.8°F 87% 29.57 in 7.0 miles West 13.8 mph - 0.02 in Rain Light Rain
4:48 PM 46.4°F 42.8°F 87% 29.57 in 7.0 miles West 8.1 mph - 0.03 in Rain Light Rain
4:53 PM 46.0°F 43.0°F 89% 29.58 in 10.0 miles West 6.9 mph - 0.03 in Rain Light Rain
5:53 PM 45.0°F 43.0°F 93% 29.59 in 10.0 miles West 5.8 mph - 0.01 in   Mostly Cloudy
6:04 PM 44.6°F 42.8°F 93% 29.58 in 10.0 miles West 5.8 mph - N/A   Mostly Cloudy
6:11 PM 44.6°F 42.8°F 93% 29.58 in 10.0 miles West 5.8 mph - N/A   Mostly Cloudy
6:53 PM 45.0°F 42.1°F 90% 29.60 in 10.0 miles West 8.1 mph - 0.01 in Rain Light Rain
7:53 PM 44.1°F 39.9°F 85% 29.61 in 10.0 miles WNW 6.9 mph - 0.01 in   Partly Cloudy
8:53 PM 43.0°F 42.1°F 97% 29.62 in 10.0 miles WNW 4.6 mph - 0.01 in   Overcast
9:53 PM 43.0°F 39.9°F 89% 29.63 in 10.0 miles WNW 3.5 mph - N/A   Mostly Cloudy
10:53 PM 43.0°F 39.0°F 86% 29.65 in 10.0 miles NW 6.9 mph - 0.00 in   Overcast
11:53 PM 43.0°F 39.9°F 89% 29.66 in 10.0 miles Calm Calm - N/A   Mostly Cloudy
Moon Phase
Dec. 11 Dec. 13 Dec. 20 Dec. 28 Jan. 04
Sunrise:07:51 AM (PST) Moon Rise:05:50 AM (PST)12/11
Sunset:04:26 PM (PST) Moon Set:03:13 PM (PST)12/11

Copyright © 2014 The Weather Underground, Inc.